Вернуться в каталог

STARLINK-33974

АктивенСвязьVLEO
NORAD 63954·PAYLOAD·🇺🇸 United States

Запущен May 13, 2025 с Cape Canaveral Space Force Station

Loading…

Ближайшие Пролёты (ближайшие 24 часа)

TLE

СвежийSource: CelesTrak SupGP

Эпоха: Sep 14, 2026, 20:57 UTC

1 63954C 25099C   26257.87340278  .00007026  00000+0  25445-3 0  2577
2 63954  43.0025 188.2103 0001318 268.2799 139.2044 15.27576714    11

Отслеживайте STARLINK-33974 в реальном времени с AllMySat

Download on the App Store